Regional Weather Roundup
Issued by NWS

Home | Current Version | Previous Version | Text Only | Print | Product List | Glossary On
Versions: 1 2 3 4 5 6 7 8 9 10 11 12 13 14 15 16 17 18 19 20 21 22 23 24 25 26 27 28 29 30 31 32 33 34 35 36 37 38 39 40 41 42 43 44 45 46 47 48 49 50
000
ASUS44 KJAN 310210
RWRMS

MISSISSIPPI HOURLY WEATHER ROUNDUP
NATIONAL WEATHER SERVICE JACKSON MS
900 PM CDT MON MAY 30 2016

NOTE: "FAIR: INDICATES FEW OR NO CLOUDS BELOW 12,000 FEET WITH NO
SIGNIFICANT WEATHER AND/OR OBSTRUCTIONS TO VISIBILITY.

MSZ001>002-007>008-010>013-018>021-025>028-034>036-310300-
NORTHWEST MISSISSIPPI

CITY           SKY/WX    TMP DP  RH WIND       PRES   REMARKS
BATESVILLE     FAIR      76  71  84 CALM      29.97R
CLARKSDALE     MOCLDY    79  70  73 CALM      29.96S
CLEVELAND      FAIR      75  67  76 CALM      29.95R
GREENWOOD      CLOUDY    78  64  61 N3        29.95R
GREENVILLE     CLOUDY    75  66  73 NW10      29.97R
OLIVE BRANCH   CLEAR     77  70  78 CALM      29.97R
OXFORD         FAIR      73  66  78 NE3       29.98R
TUNICA         CLOUDY    79  70  73 CALM      29.96S
WINONA         FAIR      77  70  79 CALM      29.95R
$$

MSZ003>006-009-014>017-022>024-029>033-037>039-310300-
NORTHEAST MISSISSIPPI

CITY           SKY/WX    TMP DP  RH WIND       PRES   REMARKS
COLUMBUS AFB   CLEAR     75  70  84 CALM      29.93R
CORINTH        FAIR      73  64  73 CALM      29.96R
GOLDN TRIANGLE PTCLDY    81  63  54 NW3       29.94R
STARKVILLE     FAIR      73  64  73 CALM      29.94R
TUPELO         CLEAR     79  61  53 NW3       29.95R
$$

MSZ040-058-310300-
CENTRAL MISSISSIPPI

CITY           SKY/WX    TMP DP  RH WIND       PRES   REMARKS
JACKSON INTL   TSTM      75  69  81 SE8       29.96R
JACKSON HAWKNS CLOUDY    78  64  61 S8        29.96R
MADISON        MOCLDY    79  64  61 S3        29.96R
MERIDIAN KEY   PTCLDY    79  68  69 S3        29.94R
MERIDIAN NAS   CLOUDY    78  66  66 CALM      29.94R
VICKSBURG TVR  CLOUDY    78  70  76 CALM      29.94R
VICKSBURG VKS  PTCLDY    79  70  73 CALM      29.95R
$$

MSZ059>079-310300-
SOUTH MISSISSIPPI

CITY           SKY/WX    TMP DP  RH WIND       PRES   REMARKS
BROOKHAVEN     FAIR     N/A N/A N/A CALM      29.98S
COLUMBIA       LGT RAIN  72  70  94 N3        30.00S
HATTIESBURG    MOCLDY    79  70  74 CALM      29.96R
MCCOMB         CLOUDY    70  68  93 NW3       29.96F
NATCHEZ        MOCLDY    73  66  78 S3        29.96S
PINE BELT      MOCLDY    79  19  11 CALM      29.98R
$$

MSZ080>082-310300-
COASTAL MISSISSIPPI

CITY           SKY/WX    TMP DP  RH WIND       PRES   REMARKS
BAY ST LOUIS   CLEAR     79  70  73 CALM      29.95R
BILOXI         CLOUDY    80  71  76 CALM      29.95R
PASCAGOULA     CLOUDY    69  69 100 CALM      29.96R
GULFPORT       CLOUDY    76  73  91 CALM      29.94R
$$




USA.gov is the U.S. government's official web portal to all federal, state and local government web resources and services.